View from above orbital plane
|
View from above satellite
|
Ground track
|
The orbit data is extracted from the following two-line orbital elements,
1 05730U 71119B 22228.85847324 .00003064 00000-0 19124-3 0 9994
2 05730 73.8937 30.1144 0670633 259.6423 92.8509 14.09010138470521
Epoch (UTC): | 16 August 2022 20:36:12 |
Eccentricity: | 0.0670633 |
inclination: | 73.8937° |
perigee height: | 377 km |
apogee height: | 1348 km |
right ascension of ascending node: | 30.1144° |
argument of perigee: | 259.6423° |
revolutions per day: | 14.09010138 |
mean anomaly at epoch: | 92.8509° |
orbit number at epoch: | 47052 |
The dashed part of the orbit path shows where the satellite is in the earth's shadow,
|
|